Wind_Speed
27 27 27 27 28 29 30 31 32 33 33 34 34 35 37 38 39 40 41 41 42 42 41 40 39 36 33 32 33 33 33 32 31 30 29 29 28 26 25 24 23 22 21
25 26 25 25 26 27 27 28 28 28 29 31 32 33 34 36 37 39 40 40 41 42 43 42 40 39 37 34 33 33 31 32 32 31 30 30 30 29 28 27 26 25 23
23 24 24 24 24 24 24 24 25 25 25 27 28 30 31 33 34 36 38 39 39 41 41 42 42 41 39 36 34 33 33 31 32 32 30 30 31 31 30 29 28 26 25
22 22 22 22 22 22 21 20 20 20 21 22 24 26 28 30 32 33 35 36 37 38 39 40 41 41 40 37 35 35 34 32 32 33 33 33 33 33 31 31 29 28 27
22 21 21 21 21 21 20 18 17 17 18 19 20 22 24 25 27 29 31 33 34 36 38 39 40 40 39 38 36 37 35 34 33 33 34 35 34 34 33 32 31 29 28
21 21 22 22 21 20 19 17 16 15 15 15 16 17 19 21 23 25 27 29 31 34 36 37 38 39 39 38 38 38 37 36 35 35 35 35 35 36 35 35 34 32 31
21 21 22 22 22 21 20 18 17 16 15 14 13 13 14 15 17 20 22 25 28 30 33 35 36 38 39 39 39 38 37 36 36 36 37 37 35 34 36 37 36 35 33
20 21 22 22 22 21 21 20 19 17 16 15 13 12 12 11 12 14 17 20 22 26 29 31 34 36 38 39 39 39 38 37 36 36 37 37 37 36 37 38 37 37 36
21 21 23 23 22 22 21 21 20 19 18 17 15 13 11 11 10 9 10 13 16 20 24 28 31 34 36 39 39 38 38 37 36 36 36 37 38 38 38 37 37 37 37
21 21 22 23 23 22 22 22 21 20 20 18 17 15 13 12 11 10 9 9 11 14 18 23 27 30 33 36 37 38 39 39 37 36 36 36 37 39 40 39 38 38 37
21 21 22 23 23 22 22 22 22 21 21 20 18 17 15 14 13 12 9 8 7 9 12 17 21 25 28 32 35 38 39 39 38 38 37 37 36 37 37 37 38 38 38
21 21 21 22 23 23 23 23 22 22 21 21 19 18 17 16 15 13 11 9 7 7 9 12 16 19 23 27 31 34 36 37 37 37 37 36 37 37 37 38 37 37 37
20 21 22 22 23 23 23 23 23 22 22 21 21 20 19 17 16 15 12 11 9 8 7 9 12 16 19 22 25 29 32 35 36 37 37 36 36 36 37 37 37 36 36
20 20 21 22 23 23 23 23 23 23 22 22 22 21 20 19 18 17 15 13 11 10 9 7 8 11 15 19 22 26 29 32 34 35 36 36 36 35 35 36 35 35 35
19 20 21 21 22 23 23 23 23 23 23 23 22 22 21 20 19 18 16 15 13 11 10 8 7 9 11 14 18 21 24 26 29 32 33 33 34 34 34 34 34 35 35
19 19 20 21 22 23 23 23 24 24 24 24 23 23 22 22 21 20 18 16 14 12 10 9 7 8 10 12 15 18 21 23 25 28 30 31 30 30 32 33 32 32 32
19 19 20 21 21 22 23 23 24 24 24 24 24 24 24 24 23 21 19 18 16 14 11 9 7 7 8 10 12 14 18 20 22 23 25 28 28 28 29 30 28 28 29
19 20 20 20 21 22 22 23 23 24 25 25 25 25 25 25 24 23 21 20 18 15 13 10 8 6 6 7 9 11 13 16 18 20 22 23 24 25 26 26 25 24 25
19 19 20 20 21 22 22 23 23 24 25 25 26 26 26 26 26 24 23 22 20 18 15 12 10 7 5 5 6 8 11 13 15 17 19 21 22 22 23 23 22 22 22
18 18 19 20 20 21 22 23 23 24 24 25 26 26 26 26 26 25 24 23 22 20 18 15 12 9 6 3 3 5 7 10 12 13 15 17 19 20 21 20 20 20 20
17 18 18 19 19 20 21 22 23 23 24 25 25 26 26 25 25 25 25 24 23 22 20 17 14 11 8 4 1 3 5 7 9 11 13 15 17 18 19 20 20 19 19
17 18 18 18 19 19 20 21 21 22 23 24 25 25 25 25 25 25 25 25 24 23 21 19 17 14 10 7 3 2 4 5 7 9 11 14 15 16 17 18 19 19 19
17 17 18 18 18 18 19 20 20 21 21 23 24 24 24 24 24 25 25 25 24 23 22 21 18 16 13 9 7 5 5 4 5 7 10 13 14 16 16 16 17 18 19
17 17 17 17 17 17 18 18 19 19 20 21 22 23 23 23 23 24 24 24 24 23 23 21 20 17 14 12 9 7 8 8 8 8 10 12 14 15 15 15 16 17 18
17 17 17 17 17 17 17 17 18 18 18 19 19 20 21 22 22 22 23 23 23 22 23 22 21 18 16 15 13 12 10 9 10 11 12 13 14 14 14 15 16 17 18
18 18 17 17 17 17 16 16 16 17 17 17 17 18 19 19 20 20 21 21 22 21 21 21 21 20 18 16 14 13 12 11 11 12 13 14 14 14 14 15 15 16 16
Wind_Direction
309 305 301 297 294 289 286 282 279 275 271 269 267 265 263 260 258 257 255 253 251 251 251 252 252 252 252 250 249 242 238 236 236 236 236 235 233 233 233 236 237 237 237
317 316 313 309 304 298 293 288 284 278 272 270 270 268 264 261 259 257 255 253 251 250 249 249 249 249 250 249 247 242 239 237 235 236 237 235 234 234 234 234 236 238 239
327 325 323 319 315 310 304 295 289 283 278 275 272 269 266 264 261 258 255 253 251 248 246 245 246 246 246 246 243 239 237 237 235 235 235 233 233 234 234 235 234 236 240
337 335 333 330 327 323 319 310 300 292 286 281 277 273 270 265 262 259 256 252 249 246 244 242 242 242 242 242 240 238 235 236 236 235 233 232 233 233 235 235 234 236 239
350 348 346 344 341 337 332 325 316 306 298 291 286 280 275 269 264 260 255 250 248 246 243 240 239 240 239 237 237 236 235 235 234 235 233 232 232 233 235 236 235 235 237
359 359 358 356 354 351 348 343 337 328 319 310 300 292 284 277 270 263 255 250 248 245 242 240 238 237 235 234 235 234 234 234 235 235 234 233 233 233 234 235 235 235 236
6 5 5 5 4 3 360 355 351 346 340 332 322 310 300 288 276 267 258 253 249 245 242 238 235 233 232 232 233 233 232 232 234 235 234 234 234 233 233 234 235 235 235
10 10 11 10 10 10 9 7 4 0 356 351 343 333 324 313 295 280 265 257 251 246 241 237 234 231 230 230 230 230 230 230 232 234 234 234 233 234 234 235 235 236 235
16 16 16 15 15 16 16 16 16 14 10 5 0 354 344 336 329 310 283 265 255 248 241 237 235 231 229 229 229 229 230 229 230 231 233 233 233 233 234 233 233 235 235
17 17 17 17 17 18 18 19 19 18 17 15 13 8 2 358 351 338 322 288 265 251 243 238 233 231 230 229 228 227 227 227 228 229 230 231 232 232 233 234 235 234 235
16 16 16 16 17 17 17 17 18 18 16 16 16 14 10 8 5 358 346 327 293 266 250 243 236 232 230 228 228 228 227 226 227 228 229 229 230 231 231 231 233 234 235
18 18 17 18 19 19 19 18 17 18 18 18 16 16 14 11 7 2 355 346 322 283 258 248 241 236 233 231 229 229 228 227 227 227 228 230 230 231 231 231 232 232 234
18 19 19 20 20 20 20 20 20 20 19 18 18 16 15 12 9 6 360 352 340 321 284 258 249 241 236 233 231 228 227 228 229 229 229 229 229 229 229 229 231 233 233
19 20 20 20 20 20 21 21 21 20 19 19 18 16 14 11 7 4 1 355 346 334 319 291 266 249 242 237 235 232 231 230 230 230 231 232 231 233 232 233 234 233 232
20 21 20 20 20 20 20 21 21 21 19 18 17 15 13 10 7 4 1 355 347 336 326 312 282 262 249 243 238 235 232 230 229 229 230 231 232 232 232 233 233 231 231
20 20 20 20 20 20 20 20 20 19 18 17 16 14 12 10 7 5 3 359 353 343 331 315 300 272 255 245 239 235 232 230 229 229 230 232 232 231 230 230 229 229 230
20 20 19 19 19 19 18 18 18 18 17 16 15 15 13 11 9 6 4 2 359 354 346 331 314 294 269 254 243 236 230 227 226 226 226 228 229 229 228 228 227 227 228
18 20 20 19 17 17 16 16 16 16 16 15 15 15 14 12 11 10 9 7 5 2 358 350 336 318 290 264 248 236 229 224 223 222 222 223 225 226 224 223 224 224 224
15 17 18 17 17 16 15 15 16 15 15 15 15 15 15 15 15 15 15 14 13 11 9 3 356 345 324 282 253 241 232 226 222 220 219 219 221 220 220 219 218 218 220
9 12 14 14 14 14 14 14 15 15 15 15 16 16 16 17 18 19 19 18 18 19 18 15 12 6 354 319 263 239 227 221 220 217 215 214 214 213 212 212 213 213 213
3 6 8 9 10 10 11 12 14 15 15 16 16 17 18 19 20 21 22 22 22 23 21 20 20 20 18 15 333 216 209 206 206 208 208 207 204 203 205 207 206 206 206
357 359 1 2 4 5 7 9 10 12 13 15 16 18 19 20 21 23 23 24 25 26 25 25 26 28 31 38 53 129 172 180 188 191 193 192 193 194 196 199 201 202 202
348 351 353 354 356 358 1 3 6 8 11 13 15 17 19 20 22 23 24 25 27 28 28 29 32 33 37 45 58 85 115 139 157 165 171 175 177 179 183 188 191 195 197
337 341 344 347 349 350 353 356 359 2 5 9 12 14 17 19 21 23 25 27 28 29 30 32 34 36 44 51 66 85 98 111 127 139 152 160 164 166 172 177 179 183 184
324 328 331 335 338 341 344 348 351 354 357 1 5 10 13 16 19 22 25 28 30 31 33 35 37 42 50 58 70 80 91 105 120 126 135 146 152 157 162 165 169 171 172
311 315 318 321 324 328 332 336 341 345 349 353 357 2 6 11 15 19 23 27 30 32 34 38 43 49 56 61 69 79 87 96 107 117 128 138 145 147 152 157 161 164 166
Height
5844 5839 5835 5832 5828 5825 5822 5820 5818 5817 5816 5816 5816 5816 5817 5819 5821 5823 5826 5828 5832 5835 5838 5841 5844 5847 5849 5852 5855 5857 5861 5864 5868 5871 5873 5876 5879 5882 5884 5886 5888 5890 5892
5838 5833 5829 5825 5821 5817 5814 5811 5809 5808 5807 5806 5806 5806 5807 5808 5809 5811 5814 5817 5820 5823 5827 5830 5834 5837 5841 5844 5847 5850 5853 5856 5860 5863 5865 5869 5873 5876 5878 5881 5883 5885 5887
5834 5829 5824 5819 5815 5811 5807 5804 5802 5800 5799 5798 5797 5797 5797 5797 5798 5800 5802 5805 5808 5811 5815 5819 5823 5827 5831 5835 5839 5842 5845 5848 5852 5856 5859 5862 5866 5869 5872 5875 5878 5880 5882
5830 5825 5820 5816 5811 5806 5802 5798 5795 5793 5792 5790 5789 5788 5788 5788 5788 5789 5790 5793 5796 5799 5803 5808 5812 5816 5821 5826 5830 5834 5837 5840 5844 5848 5851 5855 5859 5862 5866 5869 5872 5875 5877
5828 5823 5818 5813 5808 5803 5798 5794 5791 5788 5786 5784 5782 5781 5779 5779 5779 5779 5780 5782 5785 5788 5792 5796 5801 5805 5811 5816 5820 5825 5829 5832 5836 5839 5843 5847 5851 5855 5859 5862 5865 5868 5871
5827 5822 5817 5811 5806 5801 5796 5792 5788 5785 5782 5779 5777 5774 5773 5772 5771 5771 5771 5773 5775 5777 5781 5785 5790 5795 5800 5805 5810 5815 5819 5823 5827 5831 5835 5839 5843 5847 5851 5854 5858 5861 5864
5827 5822 5817 5811 5806 5801 5796 5791 5786 5783 5779 5776 5773 5770 5768 5766 5765 5764 5764 5765 5766 5769 5771 5775 5780 5784 5789 5795 5800 5805 5809 5814 5818 5822 5826 5830 5834 5838 5842 5846 5850 5853 5857
5828 5822 5817 5812 5806 5801 5796 5791 5786 5782 5778 5774 5771 5768 5765 5762 5760 5759 5758 5758 5759 5761 5763 5766 5770 5775 5780 5785 5790 5794 5799 5804 5809 5813 5817 5822 5826 5830 5834 5838 5842 5846 5850
5829 5824 5818 5813 5807 5802 5797 5792 5787 5782 5778 5774 5770 5766 5763 5760 5758 5755 5754 5753 5753 5754 5755 5758 5762 5766 5770 5775 5780 5785 5790 5795 5800 5804 5809 5813 5817 5821 5825 5829 5834 5838 5842
5830 5825 5820 5814 5809 5803 5798 5794 5789 5784 5779 5775 5770 5767 5763 5760 5756 5754 5751 5749 5749 5748 5749 5752 5754 5758 5762 5766 5771 5776 5781 5786 5791 5795 5800 5804 5808 5812 5816 5821 5825 5829 5833
5831 5826 5821 5816 5810 5805 5800 5795 5790 5785 5780 5776 5771 5767 5763 5760 5757 5753 5750 5748 5746 5745 5746 5747 5749 5751 5755 5758 5763 5767 5771 5776 5781 5786 5791 5795 5799 5803 5807 5811 5816 5820 5824
5832 5827 5823 5817 5812 5807 5802 5797 5792 5787 5782 5778 5773 5769 5764 5761 5757 5753 5750 5747 5745 5744 5743 5743 5744 5746 5748 5751 5755 5759 5763 5767 5772 5777 5781 5785 5790 5794 5798 5803 5807 5811 5815
5834 5829 5824 5819 5814 5809 5804 5799 5794 5789 5784 5779 5775 5770 5766 5761 5757 5754 5750 5747 5744 5742 5741 5740 5741 5741 5743 5745 5748 5752 5755 5759 5764 5768 5773 5777 5781 5785 5790 5794 5798 5802 5806
5835 5830 5825 5821 5816 5811 5806 5801 5796 5791 5786 5781 5776 5771 5767 5762 5758 5754 5750 5747 5744 5741 5739 5738 5737 5737 5738 5740 5742 5745 5748 5752 5756 5760 5765 5769 5773 5777 5781 5786 5790 5794 5798
5836 5832 5827 5823 5818 5813 5808 5803 5798 5793 5788 5783 5778 5773 5768 5763 5758 5754 5750 5746 5742 5739 5737 5736 5735 5734 5735 5735 5737 5739 5742 5745 5749 5753 5757 5761 5765 5769 5774 5778 5781 5785 5790
5838 5833 5829 5824 5820 5815 5810 5805 5800 5795 5790 5785 5779 5774 5769 5764 5758 5753 5749 5745 5741 5738 5735 5733 5732 5731 5731 5731 5732 5734 5736 5739 5743 5746 5750 5754 5758 5762 5766 5770 5773 5778 5782
5839 5835 5830 5826 5821 5817 5812 5807 5802 5797 5792 5786 5781 5775 5770 5764 5759 5753 5748 5744 5739 5736 5733 5730 5729 5728 5727 5728 5728 5729 5731 5734 5737 5740 5744 5748 5752 5755 5759 5762 5766 5771 5775
5840 5836 5832 5827 5823 5818 5814 5809 5804 5798 5793 5788 5782 5777 5771 5765 5759 5753 5748 5743 5738 5734 5731 5728 5726 5725 5725 5724 5724 5725 5727 5729 5732 5735 5738 5742 5746 5749 5753 5757 5761 5765 5769
5842 5837 5833 5829 5825 5820 5815 5810 5805 5800 5795 5790 5784 5778 5772 5766 5760 5754 5749 5744 5739 5734 5730 5728 5725 5723 5722 5722 5722 5722 5724 5726 5728 5730 5733 5737 5740 5744 5748 5752 5756 5760 5764
5842 5838 5834 5830 5826 5822 5817 5812 5807 5802 5797 5792 5786 5780 5775 5769 5763 5757 5751 5746 5741 5736 5731 5728 5725 5723 5721 5720 5720 5720 5721 5723 5725 5727 5730 5732 5736 5739 5743 5748 5752 5756 5760
5843 5839 5835 5831 5827 5823 5818 5814 5809 5804 5799 5794 5788 5783 5777 5771 5766 5760 5754 5749 5744 5738 5734 5730 5726 5723 5721 5720 5719 5719 5720 5722 5723 5725 5727 5730 5733 5736 5740 5744 5748 5752 5756
5843 5839 5835 5832 5828 5824 5820 5815 5811 5806 5801 5796 5791 5785 5780 5774 5769 5763 5758 5752 5747 5742 5737 5733 5729 5725 5723 5721 5720 5719 5720 5721 5722 5723 5725 5728 5731 5734 5738 5742 5746 5750 5754
5843 5839 5836 5832 5828 5824 5820 5816 5812 5808 5803 5798 5793 5788 5783 5778 5772 5767 5762 5756 5751 5746 5741 5736 5732 5728 5725 5723 5721 5721 5721 5721 5722 5723 5725 5727 5730 5734 5737 5741 5744 5748 5751
5842 5838 5835 5832 5828 5825 5821 5817 5813 5809 5805 5800 5795 5791 5786 5781 5775 5770 5765 5760 5755 5750 5745 5740 5736 5732 5728 5726 5724 5723 5723 5723 5723 5724 5726 5728 5731 5734 5737 5741 5744 5747 5750
5840 5837 5834 5831 5828 5824 5821 5817 5814 5810 5806 5802 5797 5793 5788 5783 5778 5774 5769 5764 5759 5754 5749 5745 5740 5736 5733 5730 5729 5728 5727 5727 5727 5728 5729 5731 5733 5736 5739 5742 5744 5747 5751
5837 5834 5831 5829 5826 5823 5820 5816 5813 5810 5806 5802 5798 5794 5790 5786 5781 5777 5772 5767 5763 5758 5754 5750 5746 5742 5739 5736 5735 5733 5732 5732 5732 5732 5733 5735 5736 5739 5741 5743 5746 5749 5752